This is the latest recevied weather packets stored in our database for station/object KF0GNS-15. If no packets are shown the sender has not sent any weather packets the latest 10 day(s).
| Time | Temp. | Humidity | Pressure | Rain* | Wind** | Luminosity | Snow |
|---|---|---|---|---|---|---|---|
| 1778449784 | 22.22° C | 29% | 1022.3 hPa | 0 mm | - | - | - |
| 1778448835 | 22.22° C | 29% | 1022.5 hPa | 0 mm | - | - | - |
| 1778447886 | 21.67° C | 27% | 1022.5 hPa | 0 mm | - | - | - |
| 1778446937 | 21.67° C | 29% | 1022.4 hPa | 0 mm | - | - | - |
| 1778445988 | 21.67° C | 27% | 1022.6 hPa | 0 mm | - | - | - |
| 1778445040 | 21.67° C | 27% | 1022.8 hPa | 0 mm | - | - | - |
| 1778444090 | 20.56° C | 32% | 1023 hPa | 0 mm | - | - | - |
| 1778443141 | 20.56° C | 31% | 1023.1 hPa | 0 mm | - | - | - |
| 1778442192 | 20.56° C | 37% | 1023.2 hPa | 0 mm | - | - | - |
| 1778441243 | 20.56° C | 33% | 1023.3 hPa | 0 mm | - | - | - |
| 1778440296 | 20.56° C | 31% | 1023.3 hPa | 0 mm | - | - | - |
| 1778439346 | 20.56° C | 32% | 1023.4 hPa | 0 mm | - | - | - |
| 1778438397 | 20° C | 34% | 1023.2 hPa | 0 mm | - | - | - |
| 1778437447 | 19.44° C | 31% | 1023.1 hPa | 0 mm | - | - | - |
| 1778436499 | 18.89° C | 32% | 1023.4 hPa | 0 mm | - | - | - |
| 1778435551 | 19.44° C | 33% | 1023.6 hPa | 0 mm | - | - | - |
| 1778434600 | 19.44° C | 32% | 1023.5 hPa | 0 mm | - | - | - |
| 1778433651 | 19.44° C | 34% | 1023.3 hPa | 0 mm | - | - | - |
| 1778431754 | 20° C | 34% | 1023.1 hPa | 0 mm | - | - | - |
| 1778430804 | 19.44° C | 35% | 1023 hPa | 0 mm | - | - | - |
| 1778429856 | 18.33° C | 34% | 1023.2 hPa | 0 mm | - | - | - |
| 1778428906 | 18.33° C | 38% | 1023.2 hPa | 0 mm | - | - | - |
| 1778427957 | 17.22° C | 35% | 1023.2 hPa | 0 mm | - | - | - |
| 1778427007 | 17.78° C | 36% | 1023 hPa | 0 mm | - | - | - |
| 1778426059 | 16.67° C | 37% | 1022.7 hPa | 0 mm | - | - | - |
* Rain latest hour (hover to see other rain measurements)
** Current wind speed in m/s (hover to see current wind gust speed)